STARLINK-36535, 67986

Orbit data source: Space-Track

STARLINK-36535, 67986 is a payload satellite owned by SpaceX/Seattle (US) in LEO that was launched on Fri, 27 Feb 2026 UTC via an FALCON 9 launch vehicle from the Air Force Eastern Test Range (AFETR). Payload-class satellites include a variety of spacecraft equipped with specific instruments for various scientific and technological missions. These include communications satellites like Starlink; space stations such as the ISS; scientific satellites like the Hubble; Earth observation satellites from companies like Planet Labs, Umbra, and HawkEye 360; GPS; miniature CubeSats for education and research; and military/defense satellites.

Loading next visibility...
Identifier
67986, 2026-039A
Orbit
LEO
Country
Flag of USUS
Related business
Manufacturer
SpaceX/Seattle
Mission
Operational Commercial Communications
Bus & Motor
STARLINK V2MO, Unknown motor
Mass
575 kg wet, ~530 kg dry
Launch date (UTC)
2026-02-27 (2 months ago)
Launch vehicle
FALCON 9
Launch site
Air Force Eastern Test Range (AFETR)
Object type
Payload
Rocket body
Debris
Shape & HBR
Box + 2 Pan, 17.7 m
Radar Cross Section
36.964 m²

Expand to show TLE details & history
Last TLE update: 7 hours ago

TLE from 7 hours ago
0 STARLINK-36535
1 67986U 26039A   26112.16667823  .00013564  00000-0  50143-3 0  9992
2 67986  43.0011 163.7852 0001616 256.2982 268.0257 15.27585946  5914
Epoch: 2026-04-22T04:00Z
TLE epoch observation values (Epoch: 2026-04-22T04:00:00.999Z)
Latitude
10.63845°
Longitude
61.99381°
Altitude
482.089 km
Speed
7.627 km/s
True Right ascension
22h 08m 55s
True Declination
10° 34' 25"
Sunlit
Object was in daylight at epoch
Visualization orbit readout
Latitude
Unknown
Longitude
Unknown
Altitude
Unknown
Speed
Unknown
Apparent Right ascension
Unknown
Apparent Declination
Unknown
Sunlit
N/A
Visualization observer readout
Local Sidereal Time
18:01:07
Azimuth
Unknown
Elevation
Unknown
Doppler factor
Unknown
Orbital elements
Apogee altitude
486.085 km
Perigee altitude
483.867 km
Semi-major axis
6,863.113 km
Eccentricity
0.00016
Inclination
43.0011°
RAAN
163.7852°
Arg. of periapsis
256.2982°
True anomaly
268.00719°
Mean anomaly
268.0257°
Eccentric anomaly
268.01645°
Mean motion
3.81735 °/min
Orbital period
94.31 mins
BSTAR
0.00050143
Loading maneuver chart data...
Computing Atmospheric mass density...
Loading historical data...
Loading historical data...
Loading historical data...
Loading historical data...
Loading historical data...
Loading historical data...
Loading historical data...

Documentation

Showing up to 5 results
|